Regional Weather Roundup
Issued by NWS Upton, NY

Current Version | Previous Version | Graphics & Text | Print | Product List | Glossary Off
Versions: 1 2 3 4 5 6 7 8 9 10 11 12 13 14 15 16 17 18 19 20 21 22 23 24 25 26 27 28 29 30 31 32 33 34 35 36 37 38 39 40 41 42 43 44 45 46 47 48 49 50

000
ASUS41 KOKX 111705
RWROKX

REGIONAL WEATHER ROUNDUP
NATIONAL WEATHER SERVICE NEW YORK NY
1200 PM EST THU FEB 11 2016

NOTE: "FAIR" INDICATES FEW OR NO CLOUDS BELOW 12,000 FEET WITH NO
SIGNIFICANT WEATHER AND/OR OBSTRUCTIONS TO VISIBILITY.

NYZ071-072-176-178-NJZ106-104-111800-
NEW YORK CITY METRO AREA


CITY           SKY/WX    TMP DP  RH WIND       PRES   REMARKS
CENTRAL PARK   CLOUDY    26   0  32 NW7       29.92F WCI  18
LAGUARDIA APRT CLOUDY    25   0  33 W17G33    29.91S WCI  12
KENNEDY INTL   CLOUDY    27  -1  30 W21G33    29.92F WCI  13
NEWARK/LIBERTY FLURRIES  25   2  37 W26G33    29.93S WCI   9
BRNX BOT. GARD   N/A     25   0  33 W23       29.90F WCI  10
TETERBORO      CLOUDY    25   0  33 W14G30    29.91S WCI  13
$$

NYZ177-179-078>081-111800-
LONG ISLAND NEW YORK

CITY           SKY/WX    TMP DP  RH WIND       PRES   REMARKS
FARMINGDALE    PTSUNNY   26   0  32 W17G26    29.89F WCI  13
ISLIP          CLOUDY    24   1  36 W21G35    29.86S WCI   9
SHIRLEY        PTSUNNY   25   2  37 W23G33    29.87S WCI  10
RIVERHEAD        N/A     28  -6  22 W10       29.83S WCI  19
WESTHAMPTON    CLOUDY    23   4  44 NW22G30   29.86S WCI   8
EAST HAMPTON   PTSUNNY   24   2  40 W16G28    29.83S WCI  10
MONTAUK POINT    N/A     26   8  46 W18G31    29.81S WCI  13
$$

NYZ052-065-067-111800-
HUDSON VALLEY

CITY           SKY/WX    TMP DP  RH WIND       PRES   REMARKS
WHITE PLAINS   CLOUDY    22   1  40 W23G35    29.85F WCI   6
NEWBURGH       PTSUNNY   21   5  49 NW23G35   29.86S WCI   5
MONTGOMERY     CLOUDY    23   0  36 NW20G35   29.86F WCI   8
POUGHKEEPSIE   PTSUNNY   24   2  38 W22G30    29.87S WCI   9
ALBANY         PTSUNNY   21   4  47 W21G30    29.85R WCI   5
$$

NJZ001-105-106-008-010-013-015-019>022-104-111800-
NEW JERSEY

CITY           SKY/WX    TMP DP  RH WIND       PRES   REMARKS
NEWARK/LIBERTY FLURRIES  25   2  37 W26G33    29.93S WCI   9
TETERBORO      CLOUDY    25   0  33 W14G30    29.91S WCI  13
CALDWELL       CLOUDY    23  -4  30 NW22G30   29.92S WCI   8
MORRISTOWN     CLOUDY    23   1  39 NW15G25   29.93S WCI  10
SOMERVILLE     CLOUDY    23   2  40 W13G28    29.94F WCI  11
SUSSEX         FLURRIES  22   0  38 W13G23    29.89S WCI  10
ANDOVER          N/A     21  -4  33 MISG      29.90S
TRENTON        CLOUDY    24   2  38 W18G30    29.97F WCI  10
MILLVILLE      CLOUDY    25   1  35 W23G35    30.05R WCI  10
ATLANTIC CITY  PTSUNNY   27   0  31 W28G38    30.00S WCI  11
WRIGHTSTOWN    MOSUNNY   26   3  37 W17G30    29.95F WCI  13
TOMS RIVER     PTSUNNY   25   7  46 W22G28    29.97F WCI  10
BELMAR         PTSUNNY   25   7  46 W17G24    29.94S WCI  11
$$

PAZ047>061-062-071-111800-
EASTERN PENNSYLVANIA

CITY           SKY/WX    TMP DP  RH WIND       PRES   REMARKS
PHILADELPHIA   PTSUNNY   25  -2  31 W24G30    30.03F WCI   9
ALLENTOWN      PTSUNNY   22   1  40 W21G31    29.96F WCI   6
SCRANTON       CLOUDY    18   4  54 W18G26    29.90R WCI   2
$$

CTZ002-004>006-009-010-012-RIZ004-006-007-MAZ004-011-015-111800-
SOUTHERN NEW ENGLAND
 IN CT

CITY           SKY/WX    TMP DP  RH WIND       PRES   REMARKS
BRADLEY INTL   PTSUNNY   24   0  35 W17G28    29.79S WCI  11
HARTFORD       CLOUDY    25   1  35 NW10      29.82S WCI  15
DANBURY        PTSUNNY   20  -1  40 W15G28    29.85S WCI   6
WTRBRY/OXFORD  PTSUNNY   21  -4  33 MISG      29.80S
BRIDGEPORT     PTSUNNY   25   2  37 W17G32    29.86S WCI  12
MERIDEN        CLOUDY    25   1  35 NW20G26   29.83S WCI  11
NEW HAVEN      PTSUNNY   24   2  38 NW13G26   29.85S WCI  12
CHESTER        FAIR      25   0  33 W12G25    29.79F WCI  14
GROTON         MOSUNNY   26   5  40 W16G25    29.79F WCI  14
WILLIMANTIC    CLOUDY    24  -2  32 W16G26    29.79S WCI  11

 IN RI

CITY           SKY/WX    TMP DP  RH WIND       PRES   REMARKS
PROVIDENCE     PTSUNNY   25   7  46 W15G24    29.76S WCI  13
BLOCK ISLAND   PTSUNNY   27   9  46 W16G25    29.76F WCI  14
WESTERLY       PTSUNNY   25   8  48 W10G17    29.78F WCI  15

 IN MA

CITY           SKY/WX    TMP DP  RH WIND       PRES   REMARKS
BOSTON         CLOUDY    26  14  60 W13G23    29.72S WCI  15
WORCESTER      MIX PCPN  19   6  57 W21G26    29.68F WCI   3
WESTFIELD      PTSUNNY   21   0  39 W14       29.78F WCI   8
PROVINCETOWN   LGT SNOW  27  22  81 W16       29.70F WCI  15
NANTUCKET      CLOUDY    30  20  66 W18       29.72S WCI  18
$$

ANZ330-335-338-340-345-350-353-355-111800-
COASTAL MARINE OBSERVATIONS


STATION/POSITION TIME  SKY/WX   TEMP    WIND        PRES    VSBY  WAVE
                                AIR SEA DIR/SP/G                  HT/PER
                 (UTC)          (F)     (DEG/KT/KT) (MB)    (MI)  (FT/S)
NY HARB ENTRANCE 1550            26 43  280/ 25/ 31 1012.5          4/ 5
4S FIRE IS       NOT AVBL
20S FIRE ISLAND  1550            26 44  290/ 25/ 35 1012.2          7/ 6
GREAT SOUTH BAY  NOT AVBL
23SW MTP         1650            27 46  280/ 29/ 37 1009.1          8/ 7
HUDSON CANYON    1550            29 48              1012.4         10/ 8
KINGS POINT      1600               37  320/ 20/ 25 1012.2
EXECUTION ROCKS  NOT AVBL
CENTRAL LI SOUND NOT AVBL
EASTERN LI SOUND 1600            28 41  280/ 17/ 25   N/A
ROBBINS REEF     1600                   290/ 22/ 28 1012.6
$$


>>>>>>>>>>>>>>>>>>>>>>>>>>>> KEY <<<<<<<<<<<<<<<<<<<<<<<<<<<
>                                                          <
>     SKY/WX - SKY CONDITION/PRESENT WEATHER               <
>     TMP    - TEMPERATURE IN FAHRENHEIT                   <
>     DP     - DEWPOINT IN FAHRENHEIT                      <
>     RH     - RELATIVE HUMIDITY IN PERCENT                <
>     WIND   - DIRECTION AND SPEED IN MPH                  <
>     PRES   - MEAN SEA LEVEL PRESSURE IN INCHES OF HG     <
>     WCI    - WIND CHILL INDEX                            <
>     VSB    - VISIBILITY IN MILES                         <
>     HX     - HEAT INDEX                                  <
>     TC     - TEMPERATURE IN CELSIUS                      <
>     VRB    - VARIABLE WIND DIRECTION                     <
>                                                          <
>>>>>>>>>>>>>>>>>>>>>>>>>>>> KEY <<<<<<<<<<<<<<<<<<<<<<<<<<<





USA.gov is the U.S. government's official web portal to all federal, state and local government web resources and services.